Location: Anciles
(42.5833°N, 0.5167°E)
Time: 13:28:29
(UTC+00:00)

CSL-04 Debris - Pass Details

Date: 10 December 2019
Orbit: 827 x 848 km, 99.0° (Epoch: 23 January)

Event Time Altitude Azimuth Distance (km) Brightness Sun altitude
Rises 18:19:07 0° 160° (SSE) 3,389 7.3 -20.3°
Reaches altitude 10° 18:21:28 10° 158° (SSE) 2,456 6.5 -20.8°
Maximum altitude 18:26:55 77° 74° (ENE) 865 4.0 -21.7°
Drops below altitude 10° 18:32:21 10° 349° (N) 2,458 6.6 -22.7°
Sets 18:34:43 0° 348° (NNW) 3,393 7.4 -23.1°
